Location: Unspecified
(42.3650°N, 71.1030°W)
Time: 04:57:54
(UTC+00:00)

Daily predictions for brighter satellites

Satellite Brightness Start Highest point End
(mag) Time Altitude Azimuth Time Altitude Azimuth Time Altitude Azimuth
COSMOS 2406 3.3 00:07:10 10° SSW 00:12:55 81° ESE 00:18:40 10° NNE
Sich 1 3.8 00:10:09 10° SSE 00:14:06 33° E 00:18:04 10° NNE
Cosmos 2082 Rocket 2.8 00:10:10 10° SSE 00:15:14 34° ESE 00:20:18 10° NE
CZ-2C R/B 2.9 00:10:40 10° NNE 00:15:41 46° E 00:20:41 10° S
Cosmos 1743 Rocket 3.8 00:11:42 10° S 00:16:08 79° W 00:20:38 10° N
Cosmos 2369 4.3 00:11:39 10° NNW 00:17:07 43° ENE 00:22:32 10° SE
Resurs 01 Rocket 3.1 00:17:47 10° ESE 00:21:08 22° ENE 00:24:31 10° NNE
MONITOR-E 4.4 00:25:36 10° SE 00:27:45 31° ENE 00:29:55 10° N
Cosmos 1862 3.3 00:24:19 10° S 00:28:21 76° E 00:32:25 10° NNE
SJ-6B 2.8 00:24:58 10° SSE 00:28:59 73° ENE 00:32:58 10° N
Ariane Rocket 3.0 00:24:00 10° SSE 00:29:05 90° NNW 00:34:09 10° NNW
FREGAT/IRIS 2.2 00:28:01 10° SSE 00:30:39 89° ENE 00:33:17 10° N
Cosmos 407 Rocket 3.5 00:29:01 10° S 00:34:18 69° ESE 00:39:34 10° NNE
IRIDIUM 106 4.4 00:29:45 10° S 00:34:53 64° E 00:40:03 10° N
SL-08 RB Rocket 4.0 00:30:48 10° S 00:35:24 77° WSW 00:40:06 10° NNW
MetOp-A 4.2 00:30:21 10° SSE 00:35:40 70° ENE 00:41:00 10° N
Cosmos 1190 Rocket 4.1 00:30:31 10° S 00:35:40 57° ESE 00:40:53 10° NNE
Cosmos 1727 Rocket 4.2 00:31:43 10° N 00:38:05 80° W 00:44:25 10° S
FALCON 9 DEB 4.0 00:35:03 10° WSW 00:38:29 54° NNW 00:41:56 10° NE
Meteor 2-6 Rocket 4.4 00:33:01 10° NNW 00:38:36 81° W 00:44:18 10° S
ATLAS 5 CENTAUR R/B 3.1 00:35:21 10° NW 00:41:06 54° WSW 00:47:41 10° SSE
OBJECT-B 1.0 00:41:42 10° SSE 00:44:55 55° ENE 00:48:09 10° N
Cosmos 1818 3.7 00:40:36 10° NW 00:46:04 77° WSW 00:51:29 10° SSE
Cosmos 1666 Rocket 3.8 00:42:36 10° SSE 00:46:45 47° E 00:50:55 10° NNE
Cosmos 1980 Rocket 2.7 00:41:46 10° NNW 00:47:12 44° ENE 00:51:40 15° SE
X-37B 1.3 00:44:40 10° W 00:47:47 53° N 00:50:54 10° ENE
Cosmos 1140 Rocket 3.4 00:42:59 10° S 00:48:11 71° ESE 00:53:26 10° NNE
Cosmos 1812 2.7 00:44:42 10° N 00:48:34 90° SSW 00:52:23 10° S
Meteor 1-4 Rocket 3.3 00:45:47 10° N 00:48:56 32° ENE 00:51:02 17° SE
Cosmos 1023 Rocket 4.5 00:45:36 10° SSW 00:50:51 78° ESE 00:56:09 10° NNE
USA 238 DEB 3.8 00:44:36 10° S 00:50:53 50° ESE 00:57:24 10° NE
USA 238 3.8 00:44:44 10° S 00:51:00 49° ESE 00:57:30 10° NE
Lacrosse 5 3.4 00:46:49 10° NNW 00:51:02 26° NNE 00:55:17 10° E
Cosmos 1833 Rocket 3.2 00:51:02 10° SW 00:56:36 66° WNW 01:02:13 10° NNE
Resurs 1-3 3.6 00:52:25 10° SSE 00:56:47 75° ENE 01:01:10 10° N
Cosmos 1238 Rocket 4.0 00:58:03 15° E 00:58:03 15° E 00:59:28 10° NE
Cosmos 1805 Rocket 4.2 00:53:25 10° SSW 00:57:47 60° W 01:02:13 10° N
Cosmos 1821 Rocket 4.0 00:53:59 10° S 01:00:07 86° W 01:06:25 10° N
Cosmos 1441 Rocket 4.1 00:57:13 10° SSW 01:00:54 49° WNW 01:04:34 10° N
Cosmos 1184 Rocket 3.4 00:58:57 18° SSE 01:00:58 36° E 01:04:02 10° NNE
Cosmos 1697 Rocket 2.8 00:55:21 10° NNW 01:00:59 80° WSW 01:06:18 11° SSE
Cosmos 389 Rocket 3.7 00:58:26 10° NNW 01:01:43 41° W 01:05:00 10° SSW
USA 186 4.0 01:01:07 10° SW 01:02:28 14° W 01:03:48 10° WNW
CENTAUR R/B 2.9 00:59:30 10° S 01:04:36 35° ESE 01:10:30 10° NE
SL-4 R/B 3.5 01:03:38 10° W 01:07:23 35° NNW 01:10:53 10° NE
Meteor 1-27 Rocket 4.0 01:09:05 10° NNW 01:15:02 80° W 01:20:57 10° S
Cosmos 1633 Rocket 3.0 01:11:42 10° S 01:16:07 84° E 01:20:33 10° N
SPOT 1/Viking Rocket 4.3 01:18:04 23° ESE 01:20:32 36° ENE 01:25:16 10° N
Cosmos 1535 Rocket 4.4 01:18:43 10° S 01:24:51 85° E 01:31:00 10° N
Cosmos 2123 Rocket 3.9 01:19:47 10° N 01:26:04 83° E 01:31:09 16° S
USA 32 4.1 01:22:25 18° SSE 01:26:14 60° E 01:31:23 10° NNE
CZ-2C R/B 4.4 01:24:35 10° N 01:29:04 56° WNW 01:33:27 10° SSW
SPOT 5 4.1 01:29:06 20° E 01:29:57 21° ENE 01:33:15 10° NNE
Cosmos 1850 Rocket 4.4 01:28:18 25° SSE 01:30:48 40° ESE 01:35:43 10° NE
Cosmos 2242 Rocket 4.3 01:26:43 10° N 01:30:50 36° ENE 01:31:51 32° ESE
Cosmos 1707 Rocket 4.5 01:28:33 10° NNW 01:32:43 46° W 01:36:37 11° SSW
Cosmos 1605 Rocket 3.9 01:28:42 14° S 01:34:02 67° E 01:40:05 10° NNE
Cosmos 676 Rocket 4.2 01:28:50 10° SSW 01:34:08 73° WNW 01:39:30 10° NNE
Cosmos 921 Rocket 3.0 01:30:40 10° N 01:34:50 61° ENE 01:36:07 40° SE
Shenzhou-11 Module 4.3 01:35:52 10° WSW 01:36:13 11° SW 01:36:13 11° SW
ERS-1 Rocket 3.8 01:36:11 28° E 01:37:40 33° ENE 01:42:10 10° N
Cosmos 2084 Rocket 3.6 01:37:04 40° SSE 01:37:44 43° ESE 01:41:47 10° NE
SPOT 3 Rocket 4.5 01:34:34 10° S 01:39:34 46° W 01:44:34 10° NNW
H-2A R/B 3.3 01:36:59 10° NNE 01:41:08 90° ESE 01:43:52 21° SSW
NOSS 3-2 (A) 3.5 01:37:13 10° SW 01:42:51 75° NW 01:49:18 10° NNE
Landsat 7 3.8 01:41:00 36° SE 01:42:54 69° ENE 01:47:37 10° N
Cosmos 1470 Rocket 3.5 01:40:11 21° S 01:43:07 89° WNW 01:47:32 10° N
USA 267 3.2 01:39:40 10° NE 01:46:14 84° SE 01:52:48 10° SW
MetOp-B 4.2 01:47:38 27° S 01:50:38 78° WSW 01:56:02 10° NNW
NOSS 3-2 (C) 3.2 01:45:58 10° SSW 01:51:35 81° ESE 01:57:59 10° NE
SL-16 R/B 2.8 01:46:33 10° NNW 01:51:59 44° ENE 01:53:45 34° ESE
Cosmos 468 Rocket 4.1 01:47:05 10° NNW 01:52:21 61° ENE 01:53:55 42° SE
BREEZE-M DEB (TANK) 4.3 01:52:59 10° WSW 01:53:41 10° WSW 01:54:19 10° SW
Meteor 1-18 Rocket 4.2 01:49:10 10° N 01:54:44 66° ENE 01:56:37 41° SE
Meteor 1-25 Rocket 4.2 01:50:11 13° SSW 01:55:08 80° W 02:00:48 10° N
Resurs 01 Rocket 2.9 01:54:30 17° SSW 01:57:23 37° W 02:01:31 10° NNW
Cosmos 2082 Rocket 3.7 01:54:02 10° SW 01:59:15 36° WNW 02:04:29 10° N
Cosmos 1862 Rocket 4.3 01:55:44 10° NNW 02:00:02 50° W 02:02:07 27° SSW
Cosmos 1602 3.7 02:01:41 58° SSW 02:02:23 83° W 02:06:20 10° N
Spot 2 Rocket 3.6 02:03:25 39° S 02:05:21 75° WSW 02:10:29 10° NNW
Iridium 4 Rocket 4.4 02:07:59 25° ENE 02:07:59 25° ENE 02:10:34 10° NNE
Cosmos 1741 Rocket 3.9 02:05:15 31° SSW 02:07:51 83° ESE 02:13:09 10° NNE
GP-B 4.0 02:06:21 10° N 02:10:38 47° W 02:12:53 25° SW
Cosmos 2322 Rocket 2.6 02:05:48 10° NNW 02:11:21 51° ENE 02:12:36 43° E
Cosmos 405 Rocket 3.6 02:16:17 35° WSW 02:17:12 43° WNW 02:20:48 10° N
Cosmos 1570 Rocket 4.4 02:12:16 10° N 02:17:26 48° ENE 02:18:04 45° E
CARTOSAT-1 3.4 02:18:36 80° ESE 02:18:42 81° ENE 02:23:03 10° N
USA 276 3.9 02:16:23 10° NW 02:18:51 28° N 02:18:51 28° N
USA 234 3.6 02:17:21 33° E 02:20:16 58° NNE 02:26:40 10° NW
Cosmos 1153 Rocket 4.4 02:17:41 32° SSW 02:20:44 83° W 02:26:57 10° N
Cosmos 1437 Rocket 2.9 02:17:18 10° N 02:20:36 66° NNW 02:20:36 66° NNW
Cosmos 2360 Rocket 3.1 02:17:15 10° N 02:22:26 35° ENE 02:23:23 33° ENE
Cosmos 2061 Rocket 4.5 02:23:07 40° E 02:23:22 40° E 02:29:04 10° NNE
ATLAS 3B R/B 2.7 02:23:24 49° SE 02:23:46 50° ESE 02:30:07 10° NE
Cosmos 1933 Rocket 4.5 02:22:08 29° SW 02:24:00 46° WNW 02:28:17 10° N
X-37B 2.4 02:21:29 10° WNW 02:23:19 31° WNW 02:23:19 31° WNW
Cosmos 2208 Rocket 4.4 02:20:07 10° N 02:25:10 46° ENE 02:25:29 45° ENE
Cosmos 1980 Rocket 3.8 02:26:15 10° NW 02:30:56 27° WSW 02:33:27 20° SW
Cosmos 1763 Rocket 3.6 02:26:06 10° NNW 02:31:25 71° WSW 02:32:12 60° SSW
Terra 1.8 02:32:19 68° ENE 02:32:19 68° ENE 02:37:00 10° N
Cosmos 1802 Rocket 4.1 02:32:35 55° SE 02:33:25 59° E 02:39:39 10° NNE
Cosmos 1515 4.3 02:29:44 10° NNW 02:32:59 53° NW 02:32:59 53° NW
Okean 1 4.2 02:29:48 10° NNW 02:33:38 42° W 02:33:49 42° W
Lacrosse 5 1.7 02:29:27 10° NW 02:34:32 84° SW 02:34:41 83° S
Cosmos 1869 Rocket 3.7 02:35:26 72° NNE 02:35:26 72° NNE 02:39:28 10° N
Okean 3 4.4 02:31:30 10° N 02:34:42 39° NE 02:34:42 39° NE
SL-27 R/B 4.2 02:38:04 29° NNW 02:38:04 29° NNW 02:39:58 10° N
SL-4 R/B 4.2 02:44:56 10° NW 02:47:45 19° N 02:49:07 16° NNE
Cosmos 1703 Rocket 4.4 02:44:21 10° NNW 02:48:26 42° W 02:48:26 42° W
Okean 1-7 3.9 02:46:38 10° NNW 02:50:32 44° W 02:50:32 44° W
Meteor 1-11 Rocket 3.8 02:55:21 65° ENE 02:55:21 65° ENE 03:00:43 10° NNE
CENTAUR R/B 3.5 02:49:16 10° WSW 02:55:00 46° NW 03:01:47 10° NNE
Cosmos 2333 Rocket 3.5 02:52:23 10° N 02:57:19 28° NE 02:57:55 28° ENE
ATLAS 5 CENTAUR R/B 3.1 02:56:24 10° NNW 02:59:25 47° NE 02:59:25 47° NE
Meteor 1-5 Rocket 4.4 03:00:00 62° SW 03:00:55 75° W 03:06:53 10° N
Cosmos 44 3.7 02:59:45 10° NW 03:04:05 63° WNW 03:04:05 63° WNW
Cosmos 1733 Rocket 4.5 03:09:42 32° NNE 03:09:42 32° NNE 03:12:10 10° NNE
SPOT 5 3.9 03:08:20 34° W 03:08:20 34° W 03:11:50 10° NNW
Cosmos 540 Rocket 3.9 03:07:11 10° NNW 03:11:47 57° WNW 03:11:47 57° WNW
Tsikada Rocket 4.0 03:08:49 10° N 03:15:05 68° ENE 03:15:05 68° ENE
ERS-1 Rocket 4.3 03:16:11 29° WSW 03:16:27 29° W 03:20:49 10° NW
Cosmos 841 Rocket 4.4 03:22:21 10° NNW 03:26:40 41° W 03:26:40 41° W
Meteor 1-23 Rocket 4.4 03:23:46 10° N 03:29:00 70° NNE 03:29:00 70° NNE
Thor Agena Rocket 4.4 03:28:27 10° NNE 03:31:50 41° NE 03:31:50 41° NE
SL-16 R/B 3.6 03:31:06 10° NW 03:35:37 28° W 03:35:37 28° W
Cosmos 1725 Rocket 4.1 03:38:04 64° W 03:38:21 65° W 03:44:40 10° N
Cosmos 2219 Rocket 2.8 03:33:09 10° NNW 03:38:06 48° NE 03:38:06 48° NE
Cosmos 2322 4.0 03:37:41 10° NNW 03:42:27 62° N 03:42:27 62° N
Lacrosse 4 Rocket 3.5 03:50:59 25° N 03:50:59 25° N 03:52:57 10° NNE
Cosmos 2322 Rocket 3.9 03:50:35 10° NW 03:54:24 23° W 03:54:24 23° W
USA 234 4.0 04:04:42 40° W 04:04:42 40° W 04:09:36 10° WNW
Cosmos 2360 Rocket 3.5 04:01:17 10° NW 04:05:08 32° WNW 04:05:08 32° WNW
Terra 4.3 04:11:12 12° W 04:11:12 12° W 04:12:37 10° WNW
BREEZE-M DEB (TANK) 4.4 04:09:08 10° WNW 04:14:11 77° NNE 04:38:04 10° ESE
ATLAS 3B R/B 3.8 04:10:32 19° W 04:14:37 37° NW 04:20:44 10° NNE
Cosmos 2297 Rocket 3.9 04:22:16 23° ENE 04:22:16 23° ENE 04:24:50 10° NE
COSMOS 2428 3.4 04:17:39 10° NNW 04:21:55 52° NNW 04:21:55 52° NNW
Cosmos 1464 Rocket 4.3 04:27:54 60° NNE 04:27:54 60° NNE 04:32:59 10° N
Cosmos 2237 Rocket 3.1 04:29:58 10° NNW 04:34:32 45° NNE 04:34:32 45° NNE
Cosmos 2333 Rocket 3.4 04:36:17 10° NW 04:39:54 35° WNW 04:39:54 35° WNW
Nadezhda 4 Rocket 4.4 04:36:34 10° N 04:41:56 58° NE 04:41:56 58° NE
Cosmos 2034 Rocket 4.2 04:59:10 66° N 04:59:10 66° N 05:04:34 10° N
Cosmos 1092 Rocket 4.5 04:55:27 10° N 05:00:54 53° NE 05:00:54 53° NE
NOSS 0 Rocket 4.5 04:56:12 10° NNW 05:00:54 52° NW 05:00:54 52° NW
Cosmos 2227 Rocket 3.0 05:11:31 46° NE 05:11:31 46° NE 05:15:30 10° NNE
Cosmos 2344 4.5 05:03:47 10° NW 05:13:33 79° NE 05:20:37 33° SE
CZ-2D R/B 4.2 05:10:43 10° NE 05:13:49 18° E 05:13:49 18° E
Cosmos 2219 Rocket 4.2 05:17:48 10° NW 05:19:48 18° WNW 05:19:48 18° WNW
SL-16 R/B 3.9 05:21:57 26° E 05:23:45 31° ENE 05:29:06 10° N
Cosmos 2082 4.4 05:36:11 48° NE 05:36:11 48° NE 05:40:22 10° NNE
USA 229 DEB 4.4 05:38:28 40° E 05:38:28 40° E 05:43:52 10° NE
USA 229 4.4 05:38:35 39° E 05:38:35 39° E 05:43:54 10° NE
SL-16 R/B 2.6 05:43:09 10° NNW 05:48:02 61° NNE 05:48:02 61° NNE
Cosmos 2263 Rocket 3.9 05:52:31 22° E 05:52:31 22° E 05:56:16 10° NE
Cosmos 1607 4.0 05:47:03 10° NNW 05:53:04 78° NNW 05:53:04 78° NNW
Resurs 1-4 Rocket 3.1 05:49:31 10° NNE 05:53:44 39° ENE 05:53:44 39° ENE
Cosmos 2279 Rocket 4.1 05:55:01 70° ENE 05:55:01 70° ENE 06:00:55 10° NNE
Cosmos 2026 Rocket 4.1 05:50:31 10° N 05:55:49 65° NW 05:55:49 65° NW
Cosmos 2297 Rocket 3.2 06:04:04 37° NW 06:04:04 37° NW 06:09:02 10° N
SJ 16-02 2.8 06:08:17 36° N 06:08:17 36° N 06:10:58 10° NNE
Cosmos 1634 Rocket 4.3 06:08:26 56° WNW 06:08:26 56° WNW 06:14:08 10° N
IRAS Rocket 4.4 06:13:28 68° ENE 06:13:31 68° ENE 06:19:05 10° N
Meteor 1-24 Rocket 3.8 06:10:29 10° N 06:15:18 67° NNE 06:15:18 67° NNE
Cosmos 2237 Rocket 4.2 06:14:44 10° NW 06:16:20 17° WNW 06:16:20 17° WNW
USA 215 4.4 06:14:45 10° ENE 06:20:10 27° SE 06:20:19 27° SE
Cosmos 1470 4.3 06:29:49 35° NE 06:29:49 35° NE 06:32:21 10° NNE
Cosmos 1455 Rocket 3.9 06:30:16 49° NE 06:30:16 49° NE 06:33:39 10° NNE
ADEOS II 3.2 06:24:57 10° NNE 06:29:42 34° E 06:30:19 33° ESE
Meteor 2-19 Rocket 4.3 06:28:10 10° N 06:34:21 85° W 06:34:40 81° SSW
GEOS 3 Rocket 3.6 06:34:25 10° NNE 06:39:51 77° NW 06:39:57 77° WNW
Cosmos 1937 Rocket 3.5 06:42:51 81° NNW 06:42:51 81° NNW 06:48:00 10° NNE
AQUA 3.9 06:39:13 10° NNE 06:43:34 71° NE 06:43:34 71° NE
Meteor 2-5 Rocket 4.3 06:39:38 10° NNW 06:43:57 42° WNW 06:43:57 42° WNW
Cosmos 1626 4.5 06:42:08 10° NNW 06:43:14 18° NNW 06:43:14 18° NNW
NOSS 2-3 (E) 4.0 06:46:48 63° NE 06:46:48 63° NE 06:50:57 10° NE
Meteor 1-22 Rocket 4.4 06:47:36 53° WNW 06:47:36 53° WNW 06:52:27 10° N
Cosmos 990 Rocket 4.4 06:48:31 49° NW 06:48:31 49° NW 06:53:15 10° N
Cosmos 2266 Rocket 3.9 06:42:02 10° N 06:48:24 89° E 06:49:34 62° S
Cosmos 1943 4.0 06:44:12 10° NNW 06:49:40 50° ENE 06:54:19 14° SE
NOSS 3-1 (C) 3.5 06:50:56 52° WNW 06:51:36 56° NW 06:57:49 10° NNE
Atlas Centaur 2 4.2 06:53:01 18° SE 06:53:01 18° SE 06:56:27 10° ESE
Cosmos 2227 Rocket 4.0 06:53:20 19° WNW 06:54:29 20° NW 06:58:34 10° N
CZ-2D R/B 2.3 06:49:33 10° N 06:54:58 59° WNW 06:55:07 59° W
ATLAS CENTAUR R/B 2.9 06:56:48 27° ESE 06:56:48 27° ESE 06:59:45 10° ENE
Cosmos 1898 Rocket 4.0 06:57:01 46° WNW 06:57:01 46° WNW 07:01:58 10° N
CZ-4B R/B 3.2 06:53:44 10° NNE 06:58:30 81° ESE 06:58:31 81° ESE
CBERS-1 4.0 06:55:59 10° NNE 07:01:07 74° ESE 07:01:40 66° SSE
COBE Rocket 3.7 07:01:46 85° N 07:01:46 85° N 07:06:19 10° NNW
Cosmos 2084 4.5 07:02:00 38° ESE 07:02:00 38° ESE 07:05:52 10° NE
ARIANE 5 R/B 3.7 07:00:41 10° NNE 07:05:33 38° E 07:07:34 28° SE
SL-16 R/B 2.8 07:07:03 46° W 07:07:06 46° W 07:13:08 10° NNW
NPP 3.9 07:04:07 10° N 07:09:20 52° WNW 07:09:45 51° W
NOSS 2-3 (D) 3.7 07:10:15 63° NW 07:10:15 63° NW 07:15:05 10° NNE
Cosmos 724 4.2 07:04:41 10° NW 07:10:42 73° WSW 07:12:49 42° SSE
Cosmos 2150 Rocket 4.5 07:09:35 43° SSE 07:10:44 52° ESE 07:15:50 10° NNE
SL-08 R/B 4.1 07:11:59 22° SE 07:15:01 53° ENE 07:19:50 10° N
Cosmos 2227 4.2 07:15:16 57° WSW 07:16:19 70° WNW 07:22:06 10° NNE
Cosmos 1544 Rocket 4.0 07:17:03 51° WNW 07:17:03 51° WNW 07:21:03 10° N
Meteor 1-28 Rocket 3.9 07:22:38 39° ESE 07:23:36 51° ENE 07:27:19 10° N
Cosmos 1125 Rocket 4.2 07:26:17 31° SSE 07:28:25 49° ESE 07:33:28 10° NNE
USA 229 DEB 4.3 07:25:54 30° W 07:28:29 43° NW 07:35:01 10° NNE
USA 229 4.3 07:26:00 31° W 07:28:34 43° NW 07:35:05 10° NNE
SL-16 R/B 4.2 07:28:48 10° WNW 07:29:52 13° WNW 07:29:52 13° WNW
IRS-1D 3.7 07:27:52 10° N 07:32:51 55° WNW 07:33:52 47° WSW
Resurs 1-4 Rocket 3.3 07:29:47 10° N 07:34:05 26° WNW 07:34:48 25° WNW
Meteor 1-16 Rocket 4.2 07:32:11 37° S 07:34:23 79° E 07:39:58 10° NNE
Cosmos 2263 Rocket 2.4 07:34:13 43° WSW 07:35:37 53° WNW 07:41:05 10° NNE
Cosmos 1602 Rocket 3.4 07:34:58 10° NNW 07:39:17 69° W 07:39:53 59° SW
NOSS 3-1 (A) 4.0 07:37:39 32° W 07:39:43 43° NW 07:45:48 10° NNE
Cosmos 1340 Rocket 4.4 07:41:27 22° WNW 07:41:27 22° WNW 07:44:01 10° NNW
CZ-2D R/B 3.9 07:37:52 10° NNE 07:41:47 52° E 07:43:13 33° SSE
Cosmos 1726 2.9 07:42:41 37° NW 07:42:41 37° NW 07:45:38 10° N
NOSS 8 (E) 4.3 07:44:17 69° ESE 07:44:17 69° ESE 07:47:14 10° NE
IRS-P3 4.2 07:42:44 10° N 07:48:02 63° WNW 07:50:01 38° SW
IDEFIX/ARIANE 42P 2.9 07:44:43 10° NNE 07:49:54 64° ESE 07:53:17 22° S
Meteor 1-21 Rocket 4.2 07:44:34 10° NNW 07:50:00 58° W 07:52:24 32° SSW
BREEZE-M DEB (TANK) 3.7 07:53:07 32° S 07:54:10 40° SE 08:01:50 10° ENE
Cosmos 1726 Rocket 4.4 07:51:13 17° SSE 07:54:22 49° E 07:58:41 10° NNE
Cosmos 1953 3.1 07:55:42 34° W 07:55:53 35° WNW 07:59:37 10° N
Meteor 2-8 Rocket 4.5 07:52:56 20° S 07:57:24 81° E 08:03:33 10° N
Cosmos 1703 3.1 07:54:01 10° N 07:58:00 80° W 07:59:45 32° S
Cosmos 1844 Rocket 3.3 07:55:32 19° S 07:59:25 52° ESE 08:04:49 10° NE
USA 215 3.2 07:57:02 10° NE 08:03:37 84° NW 08:07:40 25° SW
Cosmos 2228 3.1 08:01:12 26° S 08:03:39 82° E 08:08:05 10° N
Meteor 2-16 Rocket 4.4 07:58:31 10° NNW 08:04:38 66° W 08:09:55 14° S
Cosmos 1328 3.7 08:02:17 10° N 08:06:17 76° W 08:08:42 23° S
Cosmos 2298 Rocket 4.5 08:04:49 30° WSW 08:06:59 46° WNW 08:12:07 10° N
ADEOS II 3.0 08:04:43 10° N 08:09:19 31° WNW 08:11:15 24° WSW
Cosmos 1048 Rocket 3.9 08:07:36 10° NNW 08:12:41 61° WSW 08:17:47 10° S
Cosmos 1603 4.5 08:08:09 10° NW 08:13:02 30° WSW 08:14:41 25° SW
CZ-4C R/B 3.2 08:12:46 10° SSE 08:16:00 67° ENE 08:19:20 10° N
Cosmos 2285 Rocket 4.3 08:13:59 24° SW 08:17:34 51° WNW 08:23:42 10° N
OAO 2 Rocket 4.4 08:18:18 23° SSW 08:20:32 32° S 08:25:11 10° ESE
Spot 4 Rocket 4.1 08:17:17 10° N 08:22:24 62° WNW 08:25:58 19° SSW
ATLAS 3B CENTAUR R/B 4.5 08:17:12 15° WSW 08:24:53 25° SW 08:31:08 10° SSE
USA 102 3.4 07:37:05 10° SE 08:27:02 55° SW 08:28:00 38° WNW
NOSS 2-2 (E) 3.2 08:25:33 24° SSW 08:27:35 72° ESE 08:31:25 10° NE
Cosmos 1553 Rocket 4.1 08:23:14 18° SSW 08:27:37 54° WNW 08:33:37 10° N
NOSS 2-2 (D) 3.6 08:25:46 19° SSW 08:28:03 53° ESE 08:31:44 10° NE
Hubble Space Telescope 3.1 08:28:55 10° S 08:29:36 10° S 08:30:26 10° SSE
Cosmos 1269 Rocket 4.3 08:24:49 10° NNW 08:30:07 71° ENE 08:35:24 10° SSE
Cosmos 1758 Rocket 4.1 08:27:10 10° NNW 08:31:09 37° W 08:33:51 18° SSW
Cosmos 1356 Rocket 3.4 08:29:54 18° SSW 08:32:54 64° WNW 08:37:00 10° N
Cosmos 1943 4.2 08:28:58 10° NW 08:33:19 24° WSW 08:35:57 17° SW
USA 267 3.7 08:28:18 10° ESE 08:34:45 65° NE 08:41:13 10° NW
ATLAS CENTAUR R/B 2.5 08:32:59 19° W 08:35:08 29° NW 08:38:37 10° NNE
Cosmos 2058 Rocket 3.1 08:31:37 10° S 08:36:06 88° E 08:40:34 10° N
OAO 3 Rocket 4.2 08:35:12 20° WSW 08:37:39 30° SSW 08:41:57 10° SE
MSX 3.9 08:34:09 10° N 08:39:53 69° WNW 08:45:37 10° SSW
Atlas Centaur 2 3.7 08:35:37 17° SW 08:39:56 31° S 08:46:44 10° ESE
Cosmos 1745 Rocket 4.0 08:34:20 10° NNW 08:40:31 62° W 08:46:35 10° S
H-2A R/B 2.0 08:37:20 10° S 08:41:22 57° WSW 08:45:25 10° NNW
Delta 2 Rocket 4.2 08:40:52 20° SW 08:42:17 26° S 08:45:27 10° SE
ARIANE 5 R/B 3.6 08:40:03 10° N 08:44:29 28° WNW 08:47:54 15° WSW
BREEZE-M R/B 3.2 08:46:15 10° WNW 08:48:34 87° SSW 08:55:56 10° ESE
Cosmos 1825 Rocket 4.4 08:46:48 10° NNW 08:50:32 29° W 08:54:13 10° SSW
ADEOS Rocket 4.3 08:46:10 10° SE 08:53:39 59° ENE 09:01:13 10° N
CZ-2C R/B 3.5 08:50:36 10° N 08:54:03 33° WNW 08:56:58 13° SW
S3M 4.5 08:52:23 10° SSW 08:58:27 44° WNW 09:04:33 10° N
BREEZE-M TANK 4.3 08:56:13 10° W 09:00:30 49° SSW 09:16:21 10° SE
Cosmos 1953 Rocket 4.3 08:56:48 10° NNW 09:00:52 35° W 09:04:54 10° SSW
SeaSat 1 2.5 08:57:11 10° NNE 09:02:09 88° ESE 09:07:05 10° SSW
Landsat 5 4.1 09:00:13 10° SSW 09:03:48 33° W 09:07:32 10° NNW
Cosmos 1455 3.6 09:02:22 10° SSE 09:06:01 41° E 09:09:41 10° NNE
CZ-4B R/B 1.4 09:04:14 10° SSE 09:07:27 80° ENE 09:10:38 10° N
Lacrosse 5 rocket 3.5 09:03:49 10° S 09:07:31 25° ESE 09:11:18 10° ENE
Cosmos 1300 3.6 09:05:22 10° SW 09:08:46 30° WNW 09:12:12 10° NNW
NOSS 2-2 (C) 3.5 09:07:58 10° SW 09:11:24 48° NW 09:15:10 10° NNE
Cosmos 2058 3.2 09:10:02 10° N 09:14:13 73° E 09:18:23 10° SSE
Cosmos 1844 4.1 09:10:04 10° SW 09:15:40 50° WNW 09:21:17 10° NNE
Cosmos 1709 Rocket 4.1 09:14:32 10° NNW 09:20:30 54° W 09:26:25 10° SSW
